Flag for Poland Weather past 2 weeks in Poznan, Poland

Now
63 °F

Passing clouds.


Feels Like: 63 °F
Forecast: 44 / 68 °F
Wind: 17 mph from West

Location: Poznan Airport

Current Time: May 30, 2015 at 2:43:54 PM

Latest Report: May 30, 2015 at 2:00 PM


Visibility: N/A

Pressure: 29.86 "Hg

Humidity: 39%

Dew point: 37 °F

Location of PoznanLocation

Historic Weather in Poznan — Graph

°F

Poznan temperature yesterday

Maximum temperature yesterday: 70 °F (at 6:00 PM)
Minimum temperature yesterday: 52 °F (at 4:00 AM)
Average temperature yesterday: 61 °F

Past Weeks' High & Low Weather Summary

 TemperatureHumidityPressure
High73 °F (May 19, 11:30 AM)94% (May 17, 3:00 AM)30.30 "Hg (May 17, 3:00 AM)
Low37 °F (May 16, 3:30 AM)28% (May 22, 5:00 PM)29.62 "Hg (May 19, 5:00 AM)
Average57 °F59%29.98 "Hg
* Reported May 15 1:00 PM — May 30 1:30 PM, Poznan, Weather by CustomWeather, © 2015

Note: Actual official high and low records may vary slightly from our data, if they occured in-between our weather recording intervals... More about our weather records

Advertising

Poznan weather history for previous 24 hours

 ConditionsComfort  
Time TempWeatherWind HumidityBarometerVisibility
1:30 PM
Sat, May 30
63 °FPartly sunny.17 mph45%29.86 "HgN/A
1:00 PM64 °FPassing clouds.21 mph37%29.83 "HgN/A
12:30 PM63 °FPassing clouds.21 mph45%29.83 "HgN/A
12:00 PM63 °FPassing clouds.17 mph45%29.83 "HgN/A
11:30 AM59 °FPartly sunny.17 mph55%29.83 "HgN/A
11:00 AM59 °FPartly sunny.14 mph51%29.83 "HgN/A
10:30 AM57 °FPartly sunny.20 mph59%29.83 "HgN/A
10:00 AM63 °FScattered clouds.20 mph52%29.80 "HgN/A
9:30 AM61 °FScattered clouds.20 mph55%29.80 "HgN/A
9:00 AM63 °FPassing clouds.17 mph52%29.77 "HgN/A
8:30 AM63 °FSunny.20 mph56%29.77 "Hg10 mi
8:00 AM61 °FSunny.16 mph59%29.77 "Hg10 mi
7:30 AM59 °FSunny.15 mph68%29.77 "Hg10 mi
7:00 AM59 °FSunny.13 mph72%29.74 "Hg10 mi
6:30 AM59 °FSunny.10 mph72%29.74 "Hg10 mi
6:00 AM57 °FSunny.10 mph77%29.74 "Hg10 mi
5:30 AM57 °FClear.10 mph77%29.74 "Hg10 mi
5:00 AM57 °FClear.8 mph77%29.74 "Hg10 mi
4:30 AM57 °FClear.10 mph77%29.74 "Hg10 mi
4:00 AM57 °FClear.6 mph82%29.74 "Hg10 mi
3:30 AM55 °FClear.7 mph88%29.74 "Hg10 mi
3:00 AM55 °FClear.7 mph88%29.74 "Hg10 mi
2:30 AM57 °FClear.8 mph77%29.74 "Hg10 mi
2:00 AM57 °FClear.8 mph82%29.77 "Hg10 mi
1:30 AM57 °FClear.6 mph82%29.77 "Hg10 mi
1:00 AM57 °FClear.7 mph82%29.77 "Hg10 mi
12:30 AM57 °FClear.7 mph82%29.77 "Hg10 mi
12:00 AM57 °FClear.6 mph82%29.77 "Hg10 mi
11:30 PM
Fri, May 29
59 °FClear.7 mph72%29.80 "Hg10 mi
10:30 PM63 °FPassing clouds.10 mph59%29.80 "HgN/A
10:00 PM64 °FSunny.8 mph49%29.80 "Hg10 mi
9:30 PM64 °FPassing clouds.3 mph46%29.80 "HgN/A
9:00 PM66 °FPassing clouds.6 mph43%29.80 "HgN/A
8:30 PM66 °FSunny.6 mph40%29.80 "Hg10 mi
8:00 PM66 °FSunny.7 mph40%29.80 "Hg10 mi
7:30 PM68 °FSunny.7 mph35%29.80 "Hg10 mi
7:00 PM68 °FPassing clouds.8 mph35%29.80 "HgN/A
6:30 PM68 °FPassing clouds.5 mph35%29.83 "HgN/A
6:00 PM70 °FSunny.3 mph31%29.83 "Hg10 mi
5:30 PM68 °FSunny.3 mph33%29.83 "Hg10 mi
5:00 PM68 °FPassing clouds.6 mph35%29.86 "HgN/A
4:30 PM66 °FPassing clouds.6 mph35%29.86 "HgN/A
4:00 PM68 °FSunny.7 mph33%29.89 "Hg10 mi
3:30 PM68 °FSunny.7 mph33%29.89 "Hg10 mi
3:00 PM66 °FSunny.8 mph35%29.89 "Hg10 mi
2:30 PM66 °FPassing clouds.8 mph37%29.89 "HgN/A
2:00 PM66 °FPassing clouds.6 mph40%29.89 "HgN/A
Weather by CustomWeather, © 2015

See weather overviewHow to use our weather pages